[[{"header":{"parameterUnit":"m.s-1","parameterCategory":1,"la1":30.2991,"la2":30.254,"lo1":-89.0895,"lo2":-89.0444,"dy":0.0017,"dx":0.0017,"nx":28,"ny":28,"refTime":"2024-03-09T09:00:00:Z","depth":0,"parameterNumber":2,"parameterNumberName":"U-component_of_WINDS"},"data":[0,0,0,0,0,0,0,0,0,0,0,0,0,0,0,0,0,0,0,0,0,0,0,0,0,0,0,0,0,0,0,0,0,0,0,0,0,0,0,0,0,0,0,0,0,0,0,0,0,0,0,0,0,0,0,0,0,0,-3.0264,-3.0265,0,-3.0419,-3.0421,-3.0422,-3.0345,-3.0341,-3.0337,-3.0333,-3.0495,-3.0503,-3.0511,0,0,0,0,0,0,0,0,0,0,0,0,0,-2.9902,-2.9909,-3.0264,-3.0266,-3.0268,-3.0418,-3.0421,-3.0423,-3.0345,-3.034,-3.0336,-3.0331,-3.0492,-3.0502,-3.0512,0,0,0,0,0,0,0,0,0,0,0,0,0,-3.0059,-2.9912,-3.0263,-3.0247,-3.0247,-3.0418,-3.0421,-3.0423,-3.0346,-3.034,-3.0334,-3.0329,-3.0489,-3.0501,-3.0513,-3.071,0,0,-3.055,-3.0555,0,0,0,0,0,0,0,0,-3.005,-3.0072,-3.0247,-3.0248,-3.0249,-3.0356,-3.0353,-3.052,-3.0348,-3.0309,-3.0333,-3.0326,-3.0454,-3.0469,-3.0511,-3.0717,-3.0724,-3.0551,-3.0558,-3.0564,-3.0567,0,0,0,0,0,0,0,-3.0039,-3.0065,-3.0325,-3.025,-3.0251,-3.0233,-3.0248,-3.0384,-3.0414,-3.0312,-3.0307,-3.0326,-3.0453,-3.05,-3.0514,-3.0727,-3.0551,-3.0562,-3.0569,-3.0574,-3.1102,-3.1108,0,0,0,0,0,0,-3.0029,-3.0056,-3.032,-3.033,-3.0132,-3.0244,-3.0261,-3.0328,-3.0412,-3.0419,-3.0331,-3.0322,-3.0482,-3.05,-3.052,-3.0757,-3.0564,-3.0575,-3.0582,-3.1095,-3.1104,-3.1111,0,0,0,0,0,0,-3.0021,-3.0053,-3.0314,-3.0192,-3.0223,-3.0257,-3.0332,-3.0334,-3.0381,-3.0426,-3.0431,-3.0373,-3.0478,-3.0503,-3.0663,-3.0761,-3.058,-3.0592,-3.1087,-3.1098,-3.1107,-3.1231,0,0,0,0,0,0,-3.0011,-3.0051,-3.0126,-3.0194,-3.023,-3.0455,-3.0338,-3.0342,-3.0401,-3.0391,-3.0467,-3.0474,-3.0475,-3.0645,-3.0675,-3.0775,-3.0601,-3.1079,-3.1092,-3.1104,-3.1219,-3.1244,-3.1266,0,0,0,0,0,-2.9999,-3.0155,-3.013,-3.0162,-3.0325,-3.046,-3.0481,-3.0478,-3.041,-3.0486,-3.0515,-3.0472,-3.0745,-3.0662,-3.0695,-3.08,-3.1073,-3.1088,-3.1103,-3.1208,-3.1239,-3.1266,0,0,0,0,0,0,-3.01,-3.0164,-3.0137,-3.032,-3.0385,-3.0447,-3.0543,-3.0511,-3.0598,-3.0585,-3.0578,-3.0596,-3.0763,-3.0796,-3.0704,-3.0994,-3.0898,-3.0921,-3.0967,-3.0997,-3.102,-3.101,-3.0611,0,0,0,0,0,-3.0143,-3.0247,-3.0298,-3.0454,-3.0488,-3.051,-3.0569,-3.0561,-3.0628,-3.0656,-3.0697,-3.0765,-3.0866,-3.0933,-3.1028,-3.1222,-3.1238,-3.131,-3.1334,-3.1353,-3.1374,-3.1479,-3.1512,-3.1161,-3.1161,-3.116,0,0,-3.0234,-3.0282,-3.0348,-3.0476,-3.0525,-3.0634,-3.0534,-3.0653,-3.0734,-3.0674,-3.0828,-3.086,-3.0936,-3.1114,-3.1194,-3.1147,-3.1474,-3.1373,-3.1388,-3.1398,-3.1498,-3.1531,-3.1561,-3.1171,-3.1169,-3.1167,0,0,-3.0456,-3.0502,-3.0638,-3.0689,-3.0765,-3.0778,-3.081,-3.0877,-3.0896,-3.1049,-3.1007,-3.1102,-3.1276,-3.1332,-3.1383,-3.1624,-3.1588,-3.1655,-3.1781,-3.1884,-3.1911,-3.1936,-3.2023,-3.2054,-3.1674,-3.1675,-3.1675,0,-3.0561,-3.0722,-3.0712,-3.0835,-3.0893,-3.0841,-3.0979,-3.1029,-3.1133,-3.1174,-3.1119,-3.1336,-3.1383,-3.1574,-3.1632,-3.1675,-3.1712,-3.1648,-3.1908,-3.1932,-3.1955,-3.2038,-3.2071,-3.1682,-3.1681,-3.1681,-3.168,0,-3.0847,-3.096,-3.106,-3.116,-3.1229,-3.1358,-3.1369,-3.1439,-3.1424,-3.1443,-3.16,-3.1654,-3.176,-3.1804,-3.1791,-3.1993,-3.1961,-3.1907,-3.1811,-3.1997,-3.2075,-3.2106,-3.1694,-3.1691,-3.1688,-3.1686,0,0,-3.1141,-3.1232,-3.1269,-3.1314,-3.1392,-3.1479,-3.1606,-3.1708,-3.1769,-3.1841,-3.1948,-3.2095,-3.2046,-3.2103,-3.2096,-3.2186,-3.2374,-3.2121,-3.2122,-3.2168,-3.2601,-3.2642,-3.2679,-3.2349,-3.2355,-3.236,-3.2595,0,-3.137,-3.1592,-3.1586,-3.1792,-3.1896,-3.1848,-3.1958,-3.2019,-3.2039,-3.213,-3.2152,-3.2258,-3.2183,-3.2218,-3.2304,-3.2333,-3.2461,-3.2315,-3.245,-3.2455,-3.2436,-3.272,-3.2765,-3.2984,-3.2625,-3.263,-3.2634,0,-3.1667,-3.1748,-3.1965,-3.2027,-3.2071,-3.217,-3.2263,-3.235,-3.2417,-3.2426,-3.2489,-3.2467,-3.2596,-3.2494,-3.2672,-3.2573,-3.2627,-3.2649,-3.2657,-3.2672,-3.2558,-3.2744,-3.3054,-3.3088,-3.2682,-3.2678,-3.2674,0,-3.1862,-3.2025,-3.2175,-3.2215,-3.2291,-3.2362,-3.2397,-3.2458,-3.2519,-3.2599,-3.2639,-3.2734,-3.2787,-3.2861,-3.2865,-3.279,-3.3045,-3.2943,-3.3057,-3.3057,-3.3116,-3.3113,-3.3441,-3.3147,-3.3146,-3.3146,-3.3145,0,-3.212,-3.2255,-3.2264,-3.2357,-3.2507,-3.2498,-3.2646,-3.2675,-3.2729,-3.2827,-3.279,-3.2883,-3.2881,-3.2975,-3.2979,-3.3127,-3.315,-3.3161,-3.3161,-3.3166,-3.3165,-3.3204,-3.3189,-3.3154,-3.3153,-3.3151,-3.3149,0,-3.2364,-3.2375,-3.2536,-3.2594,-3.2611,-3.272,-3.2769,-3.2858,-3.2873,-3.2998,-3.3026,-3.3052,-3.3161,-3.3171,-3.3298,-3.33,-3.3479,-3.3462,-3.3457,-3.3455,-3.3569,-3.3559,-3.3935,-3.3985,-3.3657,-3.366,-3.3663,0,-3.2529,-3.2632,-3.27,-3.2762,-3.2801,-3.2902,-3.2964,-3.2958,-3.3024,-3.3107,-3.3186,-3.3291,-3.3376,-3.3552,-3.3582,-3.3679,-3.3665,-3.379,-3.3679,-3.3681,-3.3669,-3.3664,-3.3674,-3.3812,-3.3816,-3.3819,-3.3821,0,-3.2822,-3.2821,-3.2911,-3.3004,-3.3078,-3.3151,-3.3219,-3.3272,-3.3275,-3.3351,-3.3461,-3.3526,-3.3655,-3.376,-3.3855,-3.3891,-3.3858,-3.3855,-3.3887,-3.3895,-3.3888,-3.3895,-3.3518,-3.3848,-3.3845,-3.3843,-3.3842,-3.3841,-3.3033,-3.3121,-3.3183,-3.3284,-3.3334,-3.3398,-3.3484,-3.3509,-3.3601,-3.3705,-3.3696,-3.3818,-3.3881,-3.4005,-3.4048,-3.4144,-3.4102,-3.4148,-3.416,-3.4172,-3.4185,-3.3871,-3.4161,-3.416,-3.416,-3.4159,-3.4158,0,-3.3324,-3.3361,-3.3454,-3.3549,-3.3629,-3.3588,-3.366,-3.373,-3.3838,-3.3899,-3.3982,-3.4109,-3.421,-3.4247,-3.4346,-3.4416,-3.4403,-3.4442,-3.4438,-3.4447,-3.4216,-3.4179,-3.4451,-3.4451,-3.4451,-3.4451,-3.4451,-3.4451,-3.3486,-3.3634,-3.3641,-3.3813,-3.3849,-3.3968,-3.4013,-3.4072,-3.412,-3.4263,-3.4347,-3.4369,-3.4421,-3.4523,-3.4614,-3.4622,-3.4661,-3.4708,-3.471,-3.4493,-3.4464,-3.4436,-3.4401,-3.4716,-3.4716,-3.4933,-3.4936,-3.4937]},{"header":{"parameterUnit":"m.s-1","parameterCategory":1,"la1":30.2991,"la2":30.254,"lo1":-89.0895,"lo2":-89.0444,"dy":0.0017,"dx":0.0017,"nx":28,"ny":28,"refTime":"2024-03-09T09:00:00:Z","depth":0,"parameterNumber":3,"parameterNumberName":"V-component_of_WINDS"},"data":[0,0,0,0,0,0,0,0,0,0,0,0,0,0,0,0,0,0,0,0,0,0,0,0,0,0,0,0,0,0,0,0,0,0,0,0,0,0,0,0,0,0,0,0,0,0,0,0,0,0,0,0,0,0,0,0,0,0,-4.1236,-4.1238,0,-4.134,-4.1341,-4.1342,-4.1286,-4.1283,-4.128,-4.1277,-4.1383,-4.1388,-4.1394,0,0,0,0,0,0,0,0,0,0,0,0,0,-4.0988,-4.0993,-4.1236,-4.1238,-4.1239,-4.134,-4.1341,-4.1342,-4.1286,-4.1283,-4.1279,-4.1276,-4.1381,-4.1388,-4.1394,0,0,0,0,0,0,0,0,0,0,0,0,0,-4.1094,-4.0995,-4.1236,-4.1223,-4.1223,-4.1339,-4.1341,-4.1343,-4.1287,-4.1283,-4.1278,-4.1274,-4.1379,-4.1387,-4.1395,-4.153,0,0,-4.142,-4.1424,0,0,0,0,0,0,0,0,-4.1088,-4.1104,-4.1224,-4.1224,-4.1224,-4.1295,-4.1292,-4.1406,-4.1288,-4.1263,-4.1277,-4.1272,-4.1357,-4.1367,-4.1396,-4.1535,-4.154,-4.1421,-4.1426,-4.1429,-4.1431,0,0,0,0,0,0,0,-4.1081,-4.1099,-4.1277,-4.1225,-4.1226,-4.1211,-4.1222,-4.1313,-4.1332,-4.1264,-4.1261,-4.1274,-4.1357,-4.1388,-4.1398,-4.1541,-4.142,-4.1428,-4.1433,-4.1436,-4.1795,-4.1799,0,0,0,0,0,0,-4.1075,-4.1093,-4.1274,-4.128,-4.1145,-4.1219,-4.1231,-4.1277,-4.1331,-4.1335,-4.1277,-4.1271,-4.1376,-4.1388,-4.1401,-4.1562,-4.1429,-4.1437,-4.1441,-4.179,-4.1796,-4.1801,0,0,0,0,0,0,-4.107,-4.1092,-4.127,-4.1186,-4.1207,-4.1228,-4.128,-4.1281,-4.1312,-4.1341,-4.1344,-4.1306,-4.1373,-4.139,-4.1498,-4.1565,-4.144,-4.1448,-4.1785,-4.1792,-4.1798,-4.1886,0,0,0,0,0,0,-4.1063,-4.109,-4.1142,-4.1187,-4.1212,-4.1366,-4.1284,-4.1286,-4.1327,-4.1319,-4.1369,-4.1373,-4.1371,-4.1486,-4.1506,-4.1574,-4.1454,-4.1779,-4.1788,-4.1796,-4.1877,-4.1895,-4.191,0,0,0,0,0,-4.1054,-4.1163,-4.1145,-4.1167,-4.1278,-4.137,-4.1384,-4.138,-4.1332,-4.1385,-4.1402,-4.1371,-4.1554,-4.1498,-4.152,-4.1591,-4.1775,-4.1785,-4.1795,-4.187,-4.1891,-4.191,0,0,0,0,0,0,-4.1126,-4.1169,-4.115,-4.1276,-4.132,-4.136,-4.1426,-4.1403,-4.1462,-4.1452,-4.1444,-4.1456,-4.1569,-4.159,-4.1527,-4.1724,-4.1657,-4.1672,-4.1706,-4.1727,-4.1743,-4.1736,-4.1461,0,0,0,0,0,-4.1156,-4.1228,-4.1261,-4.137,-4.1393,-4.1406,-4.1446,-4.1439,-4.1484,-4.1502,-4.1528,-4.1572,-4.1639,-4.1684,-4.1748,-4.1879,-4.1889,-4.1939,-4.1955,-4.1969,-4.1982,-4.2052,-4.2075,-4.1835,-4.1835,-4.1835,0,0,-4.122,-4.1253,-4.1298,-4.1385,-4.1418,-4.1492,-4.1422,-4.1503,-4.1557,-4.1514,-4.1618,-4.1638,-4.1687,-4.1807,-4.1862,-4.1829,-4.205,-4.1982,-4.1993,-4.1999,-4.2065,-4.2088,-4.2108,-4.1842,-4.1841,-4.184,0,0,-4.1375,-4.1407,-4.15,-4.1534,-4.1584,-4.1592,-4.1614,-4.1658,-4.167,-4.1773,-4.1742,-4.1806,-4.1922,-4.1958,-4.1992,-4.2157,-4.213,-4.2178,-4.2265,-4.2333,-4.2352,-4.2368,-4.2427,-4.2448,-4.2191,-4.2191,-4.2191,0,-4.1448,-4.1558,-4.1551,-4.1634,-4.1673,-4.1636,-4.173,-4.1763,-4.1832,-4.1859,-4.1821,-4.1966,-4.1996,-4.2123,-4.2164,-4.2192,-4.2217,-4.2173,-4.235,-4.2366,-4.2382,-4.2437,-4.2459,-4.2197,-4.2196,-4.2195,-4.2195,0,-4.1645,-4.1722,-4.1791,-4.1858,-4.1904,-4.1993,-4.1998,-4.2045,-4.2033,-4.2045,-4.215,-4.2185,-4.2254,-4.2284,-4.2274,-4.241,-4.2388,-4.235,-4.2283,-4.241,-4.2462,-4.2484,-4.2204,-4.2202,-4.2201,-4.2199,0,0,-4.185,-4.191,-4.1935,-4.1964,-4.2016,-4.2075,-4.2161,-4.2228,-4.2269,-4.2317,-4.2388,-4.2486,-4.2451,-4.2489,-4.2482,-4.2542,-4.267,-4.2497,-4.2498,-4.2528,-4.2821,-4.2849,-4.2874,-4.2651,-4.2655,-4.2659,-4.2817,0,-4.2007,-4.2158,-4.2153,-4.2293,-4.2363,-4.2327,-4.2402,-4.2441,-4.2454,-4.2514,-4.2527,-4.2597,-4.2545,-4.2568,-4.2625,-4.2642,-4.2728,-4.263,-4.2717,-4.2721,-4.2707,-4.2901,-4.2932,-4.308,-4.2837,-4.284,-4.2843,0,-4.2212,-4.2266,-4.2413,-4.2453,-4.2482,-4.2549,-4.261,-4.2668,-4.2711,-4.2716,-4.2757,-4.274,-4.2826,-4.2755,-4.2873,-4.2807,-4.2841,-4.2855,-4.286,-4.2869,-4.279,-4.2915,-4.3127,-4.3149,-4.2875,-4.2872,-4.287,0,-4.2346,-4.2455,-4.2557,-4.2583,-4.2632,-4.268,-4.2703,-4.2741,-4.2782,-4.2834,-4.286,-4.2922,-4.2956,-4.3004,-4.3004,-4.2953,-4.3123,-4.3052,-4.3128,-4.3128,-4.3167,-4.3164,-4.3387,-4.3189,-4.3188,-4.3188,-4.3187,0,-4.2523,-4.2614,-4.2618,-4.2681,-4.2781,-4.2773,-4.2873,-4.2891,-4.2925,-4.299,-4.2963,-4.3024,-4.302,-4.3081,-4.3081,-4.3178,-4.3194,-4.3199,-4.3198,-4.3202,-4.3202,-4.3226,-4.3216,-4.3194,-4.3192,-4.3191,-4.319,0,-4.269,-4.2696,-4.2805,-4.2842,-4.2853,-4.2925,-4.2957,-4.3016,-4.3024,-4.3107,-4.3125,-4.3139,-4.321,-4.3214,-4.3296,-4.3296,-4.3414,-4.3402,-4.34,-4.3398,-4.3473,-4.3466,-4.3719,-4.3752,-4.3532,-4.3534,-4.3536,0,-4.2803,-4.2872,-4.2916,-4.2957,-4.2982,-4.305,-4.309,-4.3084,-4.3128,-4.3181,-4.3233,-4.3302,-4.3356,-4.3471,-4.3488,-4.355,-4.3539,-4.3623,-4.3548,-4.3549,-4.354,-4.3536,-4.3543,-4.3638,-4.3641,-4.3643,-4.3644,0,-4.3002,-4.3001,-4.3061,-4.3122,-4.3171,-4.3218,-4.3262,-4.3298,-4.3297,-4.3347,-4.3419,-4.3461,-4.3544,-4.3612,-4.3672,-4.3694,-4.3669,-4.3668,-4.3688,-4.3693,-4.3689,-4.3692,-4.344,-4.3662,-4.366,-4.3659,-4.3658,-4.3657,-4.3146,-4.3205,-4.3245,-4.3312,-4.3344,-4.3385,-4.3442,-4.3458,-4.3518,-4.3585,-4.3577,-4.3657,-4.3696,-4.3774,-4.3801,-4.3863,-4.3834,-4.3865,-4.3872,-4.388,-4.3888,-4.3679,-4.3874,-4.3873,-4.3873,-4.3873,-4.3872,0,-4.3344,-4.3367,-4.3428,-4.349,-4.3543,-4.3514,-4.3561,-4.3606,-4.3677,-4.3716,-4.3769,-4.3851,-4.3916,-4.3938,-4.4001,-4.4046,-4.4036,-4.4063,-4.406,-4.4065,-4.391,-4.3886,-4.407,-4.4069,-4.4069,-4.4069,-4.4069,-4.4069,-4.3453,-4.3551,-4.3555,-4.3668,-4.3691,-4.3769,-4.3798,-4.3835,-4.3866,-4.3959,-4.4013,-4.4026,-4.4057,-4.4122,-4.418,-4.4184,-4.4209,-4.424,-4.424,-4.4096,-4.4076,-4.4057,-4.4034,-4.4246,-4.4246,-4.439,-4.4391,-4.4392]}]]